Location: Marcé
(47.5801°N, 0.3280°W)
Time: 23:06:55
(UTC+01:00)

Transit 2A - Pass Details

Date: 30 November 2021
Orbit: 591 x 967 km, 66.7° (Epoch: 16 January)

Event Time Altitude Azimuth Distance (km) Brightness Sun altitude
Rises 05:22:18 0° 288° (WNW) 3,487 - -30.4°
Reaches altitude 10° 05:26:01 10° 312° (NW) 2,614 - -29.8°
Maximum altitude 05:29:24 15° 345° (NNW) 2,319 - -29.2°
Exits shadow 05:30:19 15° 355° (N) 2,356 8.4 -29.1°
Drops below altitude 10° 05:32:52 10° 19° (NNE) 2,696 9.0 -28.7°
Sets 05:36:48 0° 42° (NE) 3,663 10.0 -28.0°
